Tracking 18980 objects as of 22-Feb-2018
HD Live streaming from Space Station
objects crossing your sky now

COSMOS 2180

Track COSMOS 2180 now!
10-day predictions
COSMOS 2180 is classified as:


NORAD ID: 21875
Int'l Code: 1992-008A
Perigee: 965.1 km
Apogee: 1,021.6 km
Inclination: 82.9 °
Period: 104.8 minutes
Semi major axis: 7364 km
RCS: 2.262 m2 (large)
Launch date: February 17, 1992
Source: Commonwealth of Independent States (former USSR) (CIS)
Launch site: PLESETSK MISSILE AND SPACE COMPLEX (PKMTR)
aabbcc
Your satellite tracking list
Your tracking list is empty




NASA's NSSDC Master Catalog

Two Line Element Set (TLE):
1 21875U 92008A   18053.20232796  .00000023  00000-0  76313-5 0  9990
2 21875  82.9285 311.6835 0038324 141.4309 333.7863 13.73727503304073
Source of the keplerian elements: AFSPC